This demonstration page uses our WeatherBlox Daily Observations layout. Learn more.

36.17497, -115.13722

Hourly Observations for June 2, 2020

Temp ( °F °C ) Dew Point ( °F °C ) Humidity (%) Winds ( mph kmh ) Pressure ( in mb ) Visibility ( mi km ) Precip ( " mm )
12:53 am 00:53 Clear 84 28.9 32 0 15 15 WNW 3 6 29.87 1012 10 16.0934 0 0
1:53 am 01:53 Clear 81 27.2 33 0.6 18 18 W 3 6 29.87 1012 10 16.0934 0 0
2:53 am 02:53 Clear 80 26.7 35 1.7 20 20 WNW 7 11 29.87 1012 10 16.0934 0 0
3:53 am 03:53 Clear 81 27.2 36 2.2 20 20 SW 3 6 29.88 1012 10 16.0934 0 0
4:53 am 04:53 Clear 79 26.1 36 2.2 21 21 Calm 29.89 1012 10 16.0934 0 0
5:53 am 05:53 Sunny 80 26.7 33 0.6 18 18 NW 5 7 29.92 1013 10 16.0934 0 0
6:53 am 06:53 Sunny 81 27.2 34 1.1 18 18 WNW 7 11 29.93 1014 10 16.0934 0 0
7:53 am 07:53 Sunny 82 27.8 38 3.3 21 21 Calm 29.95 1014 10 16.0934 0 0
8:53 am 08:53 Sunny 87 30.6 34 1.1 15 15 SE 3 6 29.96 1015 10 16.0934 0 0
9:53 am 09:53 Sunny 89 31.7 31 -0.6 12 12 Calm 29.97 1015 10 16.0934 0 0
10:53 am 10:53 Sunny 92 33.3 30 -1.1 11 11 ESE 6 9 29.97 1015 10 16.0934 0 0
11:53 am 11:53 Sunny 94 34.4 31 -0.6 11 11 ESE 6 9 29.97 1015 10 16.0934 0 0
12:53 pm 12:53 Sunny 97 36.1 34 1.1 11 11 SSE 5 7 29.96 1014 10 16.0934 0 0
1:53 pm 13:53 Sunny 96 35.6 36 2.2 12 12 Calm 29.94 1014 10 16.0934 0 0
2:53 pm 14:53 Sunny 100 37.8 35 1.7 10 10 VRB 6 9 29.92 1013 10 16.0934 0 0
3:53 pm 15:53 Sunny 101 38.3 36 2.2 10 10 E 7 11 29.9 1013 10 16.0934 0 0
4:53 pm 16:53 Sunny 101 38.3 35 1.7 10 10 VRB 5 7 29.88 1012 10 16.0934 0 0
5:53 pm 17:53 Sunny 100 37.8 34 1.1 10 10 VRB 3 6 29.87 1012 10 16.0934 0 0
6:53 pm 18:53 Sunny 99 37.2 34 1.1 10 10 S 3 6 29.87 1012 10 16.0934 0 0
7:53 pm 19:53 Sunny 97 36.1 35 1.7 11 11 SSE 3 6 29.88 1012 10 16.0934 0 0
8:53 pm 20:53 Clear 95 35 37 2.8 13 13 NW 6 9 29.89 1012 10 16.0934 0 0
9:53 pm 21:53 Clear 93 33.9 39 3.9 15 15 SW 5 7 29.91 1013 10 16.0934 0 0
10:53 pm 22:53 Clear 88 31.1 40 4.4 18 18 NW 5 7 29.91 1013 10 16.0934 0 0
11:53 pm 23:53 Clear 89 31.7 35 1.7 15 15 NNW 9 15 29.91 1013 10 16.0934 0 0

Powered by AerisWeather